Activity Log for May, 08 2019

Back to Activity Log Search


Incident Time Nature Address
19F052047 00:00:13 22I JUV INVEST 29XX SHAWNEE DR
19F052048 00:04:16 48 SUSPICIOUS 24XX THOMPSON AVE
19F052049 00:06:47 30 TRAFFIC STOP E WAYNE TRACE & ROY ST
19F052050 00:08:22 30 TRAFFIC STOP 24XX W JEFFERSON BLVD
19F052051 00:23:18 30 TRAFFIC STOP N COLISEUM BLVD & VANCE AVE
19F052052 00:31:54 30 TRAFFIC STOP PASADENA DR & BEAVER AVE
19F052053 00:33:07 30 TRAFFIC STOP LIMA RD & LEY RD
19F052054 00:35:39 44LP 24XX VANCE AVE
19F052055 00:38:50 30 TRAFFIC STOP 58XX ILLINOIS RD
19F052056 00:50:27 30 TRAFFIC STOP GOSHEN RD & W COLISEUM BLVD
19F052057 01:04:13 40A AUDIBLE 18XX RIVER RUN TRL
19F052058 01:16:33 48 SUSPICIOUS 16XX ASHLEY AVE
19F052059 01:21:37 48,36 15XX CHEROKEE RD
19F052060 01:24:36 48 SUSPICIOUS 9XX W STATE BLVD
19F052061 01:32:28 40A AUDIBLE 43XX FLAGSTAFF CV
19F052062 01:34:44 50IP BURG I/P 68XX JOHN ST
19F052063 01:43:24 46,96 39XX DRESSAGE DR
19F052064 01:51:06 911 HANG UP 20XX E PONTIAC ST
19F052065 01:54:45 51JO 62XX STELLHORN RD
19F052066 02:22:59 34 TRAFF HAZARD NEVADA AVE & BERKLEY AVE
19F052067 02:25:55 14 WARRANT WEFEL ST & HIGH ST
19F052068 02:27:18 63 CONTACT 60XX INWOOD LN
19F052069 03:19:44 46 DOMESTIC 11XX E CREIGHTON AVE
19F052070 03:21:15 40A AUDIBLE 60XX ALTADENA DR
19F052071 03:33:31 EMS 34XX COUNTRYDALE DR
19F052072 03:52:19 40A AUDIBLE 62XX BLUFFTON RD
19F052073 03:57:32 48 SUSPICIOUS 28XX JOHN ST
19F052074 04:01:22 40A AUDIBLE 57XX COVENTRY LN
19F052075 04:22:54 15 ASSIST 293XX I 69 NB
19F052076 04:33:39 53 ARMED ROB 8XX POPLAR ST
19F052077 04:54:10 48,36 16XX THORNY MEADOW LN
19F052078 05:09:15 40A AUDIBLE 25XX BROADWAY
19F052079 05:28:01 48,36 LAKE AVE & N COLISEUM BLVD
19F052080 05:36:05 63 CONTACT S LAFAYETTE ST & DECATUR RD
19F052081 05:42:28 30 TRAFFIC STOP W JEFFERSON BLVD & I 69 302 NB ON
19F052082 06:01:15 46 DOMESTIC 62XX ST JOE RD
19F052083 06:04:04 30 TRAFFIC STOP E STATE BLVD & SENIOR DR
19F052084 06:08:05 30 TRAFFIC STOP I 69 AND JEFFERSON BLVD
19F052085 06:09:20 25,86 NORTHLAWN DR & PARNELL AVE
19F052086 06:17:33 27 RECKLESS DRI E COLISEUM BLVD & N ANTHONY BLVD
19F052087 06:19:54 911 HANG UP 4XX NAPLES CIR
19F052088 06:24:11 40A AUDIBLE 3XX INSURANCE AVE
19F052089 06:24:52 25 PD ACCIDENT 36XX WARSAW ST
19F052090 06:35:52 30 TRAFFIC STOP AIRPORT EXPRESSWAY & AIRPORT DR
19F052091 06:43:21 30 TRAFFIC STOP GOSHEN RD & W COLISEUM BLVD
19F052092 06:48:04 25 PD ACCIDENT 4XX S CLINTON ST
19F052093 06:49:02 129 13XX SPRING ST
19F052094 06:58:55 103 UNWANTED 73XX DECATUR RD
19F052095 07:01:43 25HS HIT SKIP E WAYNE TRACE & PITT ST
19F052096 07:07:30 30 TRAFFIC STOP N CLINTON ST & E FOURTH ST
19F052097 07:08:07 30 TRAFFIC STOP 19XX N CLINTON ST
19F052098 07:14:35 66 MENTALLY ILL XX E MAIN ST
19F052101 07:15:56 18 WORK TRAFFIC E STATE BLVD & ALABAMA AVE
19F052100 07:16:37 18 WORK TRAFFIC E STATE BLVD & LAVERNE AVE
19F052102 07:18:38 18 WORK TRAFFIC W STATE BLVD & EDITH AVE
19F052099 07:22:31 108 FOLLOWUP 4XX E MAIN ST
19F052103 07:34:07 30 TRAFFIC STOP BAXTER ST & WEISSER PARK AVE
19F052104 07:40:31 25 PD ACCIDENT 16XX CHEROKEE RD
19F052105 07:40:42 30 TRAFFIC STOP ST JOE RD & ST JOE CENTER RD
19F052106 07:42:37 46 DOMESTIC 25XX PLEASANT AVE
19F052107 07:46:58 55 FIGHT 5XX E COLISEUM BLVD
19F052112 07:53:11 25HS HIT SKIP 47XX HOLTON AVE
19F052109 07:57:43 39 STOLEN VEHIC 41XX VANCE AVE
19F052108 07:58:59 30 TRAFFIC STOP SPRING ST & BEACH ST
19F052110 08:06:33 46 DOMESTIC 11XX RIVERMET AVE
19F052118 08:13:16 24 MISSING PERS 18XX ALABAMA AVE
19F052114 08:20:10 25 PD ACCIDENT W WASHINGTON CENTER RD & HUGUENARD
19F052113 08:21:30 33 DISABLED VEH ILLINOIS RD & W JEFFERSON BLVD
19F052117 08:21:48 108 FOLLOWUP 62XX STELLHORN RD
19F052115 08:25:17 103 UNWANTED 79XX W JEFFERSON BLVD
19F052116 08:26:50 EMS 42XX S ANTHONY BLVD
19F052120 08:33:14 27 RECKLESS DRI SPY RUN AVE & E STATE BLVD
19F052121 08:34:10 101 OPEN DOOR 20XX WOODHAVEN DR
19F052119 08:34:24 23 VANDALISM 71XX KAREN CT
19F052122 08:39:56 43 DISTURBANCE 79XX S ANTHONY BLVD
19F052124 08:44:06 50,ATTEMPTED 57XX RIVER RUN TRL
19F052125 08:45:04 40A AUDIBLE 28XX EDWARDS ST
19F052123 08:46:31 1 MEET 36XX INDEPENDENCE DR
19F052126 08:57:29 33,34 N CLINTON ST & BROOKS RD
19F052127 09:04:25 25HS HIT SKIP 6XX E DUPONT RD
19F052128 09:10:17 17 MOTOR CHECK 21XX W COLISEUM BLVD
19F052129 09:13:32 40A AUDIBLE 76XX MILL RUN RD
19F052130 09:15:55 1 MEET 12XX S BARR ST
19F052134 09:25:14 22RN RUNAWAY 27XX WEISSER PARK AVE
19F052131 09:25:33 64 NOT SEEN 57XX BELL TOWER LN
19F052132 09:26:18 50IP BURG I/P 19XX OXFORD ST
19F052133 09:30:14 80 CIVIL INVEST 3XX W BERRY ST
19F052135 09:42:42 122 HUNTERTOWN 150XX LIMA RD
19F052163 09:46:23 17 MOTOR CHECK 21XX W COLISEUM BLVD
19F052139 09:48:18 56 MOLESTING 7XX UNION ST
19F052136 09:48:21 96 BATTERY 29XX BROOKLYN AVE
19F052138 09:49:04 40A AUDIBLE 25XX WEBSTER ST
19F052137 09:49:34 25 PD ACCIDENT 53XX COLDWATER RD
19F052140 09:52:42 63 CONTACT 46XX SPEEDWAY DR
19F052141 09:55:26 108 FOLLOWUP 57XX S ANTHONY BLVD
19F052145 10:04:12 17 MOTOR CHECK 46XX FAIRLAWN PASS
19F052142 10:21:21 103 UNWANTED 1XX E BRANNING AVE
19F052143 10:22:25 40P PANIC ALARM 67XX BLUFFTON RD
19F052144 10:24:03 43,62 49XX OLD MAYSVILLE RD
19F052146 10:28:30 22RC RECOVERY 54XX S HANNA ST
19F052170 10:32:04 17 MOTOR CHECK 24XX HENSCH ST
19F052147 10:35:51 102,TX THREATS 60XX S HANNA ST
19F052155 10:41:15 39R STOLEN RECO 42XX LAKE AVE
19F052148 10:43:09 103 UNWANTED 10XX BROADWAY
19F052149 10:46:42 63 CONTACT 27XX FOX AVE
19F052150 10:48:09 40H HOLDUP ALRM 86XX FIESTA WAY
19F052152 10:48:59 66V MENTAL VIOL 81XX ST JOE CENTER RD
19F052151 10:50:11 51 THEFT 10XX HOME AVE
19F052153 10:53:18 129 22XX REED ST
19F052154 10:54:36 40A AUDIBLE 61XX CORDAVA CT
19F052156 10:56:58 911 HANG UP 71XX RIVERTON DR
19F052164 10:59:46 50 BURGLARY 23XX MONTCLAIR AVE
19F052157 11:02:57 22N CHILD NEGLE 26XX FREEMAN ST
19F052158 11:05:29 17 MOTOR CHECK 49XX E DEROME DR
19F052159 11:11:09 30 TRAFFIC STOP 312XX I 69 SB
19F052162 11:13:06 51 THEFT 34XX GLENCAIRN DR
19F052160 11:13:46 48 SUSPICIOUS EWING ST & W SUPERIOR ST
19F052161 11:13:48 37 PARKING VIOL 12XX W WILDWOOD AVE
19F052165 11:20:44 25HS HIT SKIP 57XX FAIRFIELD AVE
19F052166 11:22:26 46 DOMESTIC 46XX WARSAW ST
19F052167 11:23:09 25 PD ACCIDENT PEARL ST & EWING ST
19F052169 11:27:11 25 PD ACCIDENT W JEFFERSON BLVD & ARDMORE AVE
19F052171 11:35:13 51,35 47XX COLDWATER RD
19F052172 11:45:08 51 THEFT 19XX EMMA AVE
19F052173 11:48:30 51 THEFT 27XX W WASHINGTON CENTER RD
19F052174 11:48:52 43 DISTURBANCE 60XX S CALHOUN ST
19F052175 11:56:40 33,34 MAGNAVOX WAY & ILLINOIS RD
19F052176 12:00:59 64 NOT SEEN 45XX PLAZA DR
19F052177 12:05:00 43 DISTURBANCE 4XX W DEWALD ST
19F052178 12:07:16 46 DOMESTIC 22XX HOAGLAND AVE
19F052181 12:08:47 43 DISTURBANCE 20XX BROADWAY
19F052182 12:09:43 47 REMOVE ITEMS 28XX HOLTON AVE
19F052179 12:10:53 17 MOTOR CHECK 54XX TRIER RD
19F052180 12:13:14 40A AUDIBLE 1XX E LEITH ST
19F052183 12:17:51 37 PARKING VIOL 11XX MCCULLOCH ST
19F052185 12:22:14 56 MOLESTING 7XX BROADWAY
19F052184 12:27:58 30 TRAFFIC STOP LIMA RD & RABUS DR
19F052186 12:30:05 41,36 25XX SPY RUN AVE
19F052187 12:33:39 33,34 E FOURTH ST & N CLINTON ST
19F052188 12:34:22 103 UNWANTED 12XX E CREIGHTON AVE
19F052190 12:39:44 51JO 8XX E COLISEUM BLVD
19F052189 12:41:14 33,34 25XX S HANNA ST
19F052191 12:44:03 37 PARKING VIOL 42XX LYNWOOD CT
19F052194 12:46:51 102,TX THREATS 31XX WEBSTER STREET
19F052192 12:48:23 1 MEET 24XX FAIRFIELD AVE
19F052193 12:49:07 99 NARCOTICS 6XX MCKINNIE AVE
19F052195 12:52:14 25 PD ACCIDENT SHERMAN BLVD & VILLA PARK CT
19F052196 12:53:32 46 DOMESTIC 5XX HIGH ST
19F052197 12:59:59 43 DISTURBANCE 22XX HOAGLAND AVE
19F052198 13:13:43 63 CONTACT 19XX E WAYNE ST
19F052199 13:20:30 33J LOCKED OUT WINCHESTER RD & LOWER HUNTINGTON R
19F052200 13:20:38 42 INTOX PERSON FAIRFIELD AVE & W JEFFERSON BLVD
19F052203 13:23:05 109 DUMPING 15XX GOSHEN AVE
19F052201 13:23:32 22I JUV INVEST 21XX LAKE AVE
19F052204 13:23:49 53 ARMED ROB 55XX S ANTHONY BLVD
19F052202 13:24:24 129 1XX E JEFFERSON BLVD
19F052217 13:28:42 22RN RUNAWAY 18XX BEACON ST
19F052205 13:30:36 41,36 10XX E COLISEUM BLVD
19F052206 13:32:23 25 PD ACCIDENT 101XX LIMA RD
19F052207 13:33:59 1 MEET 19XX GREENTREE CT
19F052215 13:38:17 24 MISSING PERS XX E MAIN ST
19F052208 13:39:07 43 DISTURBANCE 51XX VALUE DR
19F052214 13:41:51 25HS HIT SKIP 20XX KLUG DR
19F052209 13:43:30 30 TRAFFIC STOP S ANTHONY BLVD & E RUDISILL BLVD
19F052210 13:43:36 55 FIGHT 4XX E STATE BLVD
19F052213 13:43:39 17R REREAD 48XX BADE DR
19F052212 13:48:38 48 SUSPICIOUS 47XX COLDWATER RD
19F052211 13:48:58 48 SUSPICIOUS 2XX E WASHINGTON CENTER RD
19F052218 13:53:16 66 MENTALLY ILL 23XX VERSAILLES VILLAGE PL
19F052216 13:57:22 40A AUDIBLE 13XX GLENWOOD AVE
19F052219 14:01:32 1 MEET 34XX STONE BLVD
19F052220 14:06:20 30 TRAFFIC STOP 43XX SW ANTHONY WAYNE DR
19F052222 14:07:16 EMS 12XX BOONE ST
19F052234 14:07:53 18 WORK TRAFFIC E STATE BLVD & LAVERNE AVE
19F052235 14:08:22 18 WORK TRAFFIC E STATE BLVD & ALABAMA AVE
19F052221 14:08:44 30 TRAFFIC STOP FAIRFIELD AVE & W PETTIT AVE
19F052232 14:08:48 18 WORK TRAFFIC S ANTHONY BLVD & OXFORD ST
19F052223 14:12:21 25 PD ACCIDENT E DUPONT RD & I 69 EXIT 316 SB
19F052224 14:14:58 26 PI ACCIDENT FALLS DR & LIBERTY MILLS RD
19F052225 14:17:35 48,36 74XX MAEVE DR
19F052226 14:20:52 45 NEIGHBORHOOD 63XX RESERVE LINE RD
19F052227 14:26:41 48,36 N ANTHONY BLVD & LAKE AVE
19F052238 14:28:32 63 CONTACT 3XX AUGUSTA WAY
19F052228 14:29:51 51 THEFT 24XX FAIRFIELD AVE
19F052229 14:30:42 30 TRAFFIC STOP 24XX GETZ RD
19F052230 14:32:40 43 DISTURBANCE 2XX E COLISEUM BLVD
19F052233 14:34:07 65T SUICIDE THR 67XX BAY TREE DR
19F052231 14:35:14 30 TRAFFIC STOP OLD TRAIL RD & CHURCH ST
19F052236 14:38:53 23 VANDALISM 2XX E PETTIT AVE
19F052237 14:42:47 48 SUSPICIOUS 48XX BUELL DR
19F052239 14:52:49 65T SUICIDE THR 63XX ST JOE CENTER RD
19F052240 14:53:57 22I JUV INVEST 4XX E CREIGHTON AVE
19F052243 14:54:44 25HS HIT SKIP E JEFFERSON BLVD & S CLINTON ST
19F052241 14:54:57 14 WARRANT 2XX E LEITH ST
19F052242 14:59:26 43 DISTURBANCE 1XX W SUPERIOR ST
19F052253 14:59:41 66 72 HOUR 25XX E DUPONT RD
19F052246 15:03:22 73 WALK AWAY 20XX ALABAMA AVE
19F052244 15:04:24 37 PARKING VIOL 9XX WOODVIEW BLVD
19F052245 15:04:26 30 TRAFFIC STOP S CALHOUN ST & MORNINGSIDE DR
19F052247 15:09:09 25 PD ACCIDENT 36XX WEISSER PARK AVE
19F052248 15:09:58 30 TRAFFIC STOP 104XX ILLINOIS RD
19F052249 15:12:13 30 TRAFFIC STOP E STATE BLVD & PARNELL AVE
19F052250 15:12:44 43 DISTURBANCE 11XX ILLSLEY DR
19F052251 15:20:04 14S SERVING WAR ROCKHILL ST & W WASHINGTON BLVD
19F052252 15:20:14 25HS HIT SKIP 15XX WELLS ST
19F052254 15:22:42 34 TRAFF HAZARD 23XX MAUMEE AVE
19F052255 15:24:38 25 PD ACCIDENT COLDWATER RD & E WALLEN RD
19F052256 15:25:45 30 TRAFFIC STOP E STATE BLVD & N ANTHONY BLVD
19F052258 15:27:58 911 HANG UP SPY RUN AVE & E FOURTH ST
19F052257 15:28:28 44LM 26XX FOX AVE
19F052260 15:29:27 17 MOTOR CHECK 117XX EAGLE CREEK PASS
19F052281 15:36:59 51 THEFT 49XX LIMA RD
19F052262 15:39:33 96JO 29XX ABBOTT ST
19F052274 15:41:02 48 SUSPICIOUS XX E MAIN ST
19F052259 15:41:16 20 PROBLEM UNK 13XX E PONTIAC ST
19F052261 15:41:32 47 REMOVE ITEMS 7XX HIGH ST
19F052263 15:41:42 40A AUDIBLE 51XX MACY LN
19F052264 15:45:11 25 PD ACCIDENT 16XX BENHAM DR
19F052265 15:46:32 40A AUDIBLE 51XX STANDISH DR
19F052298 15:48:26 17 MOTOR CHECK 49XX LIMA RD
19F052266 15:50:35 63 CONTACT BEACON ST & LAKE AVE
19F052267 15:52:15 55 FIGHT 32XX S MONROE ST
19F052271 15:53:10 16,97 21XX SPY RUN AVE
19F052269 15:56:37 911 HANG UP 62XX BIRCHDALE DR
19F052268 15:56:59 25 PD ACCIDENT COLDWATER RD & E COLLINS RD
19F052270 15:59:40 43 DISTURBANCE 96XX REINDEER RD
19F052273 16:01:30 27 RECKLESS DRI W JEFFERSON BLVD & S ILLINOIS RD
19F052272 16:01:52 51JO 24XX FAIRFIELD AVE
19F052275 16:04:15 50,ATTEMPTED 26XX KENWOOD AVE
19F052294 16:05:12 33 DISABLED VEH 311XX I 69 NB
19F052276 16:10:50 25 PD ACCIDENT LIMA RD & W WASHINGTON CENTER RD
19F052277 16:12:27 43 DISTURBANCE 51XX ILLINOIS RD
19F052278 16:13:49 48 SUSPICIOUS 75XX SOUTHTOWN XING
19F052279 16:15:41 25 PD ACCIDENT E COOK RD & AUBURN RD
19F052280 16:17:18 38A LOST/ARTICL 53XX COLDWATER RD
19F052282 16:24:44 43 DISTURBANCE 26XX N CLINTON ST
19F052285 16:26:08 51 THEFT 1XX W BAKER ST
19F052286 16:26:54 22I JUV INVEST 35XX MCKINNIE AVE
19F052284 16:27:41 25 PD ACCIDENT E STATE BLVD & CRESCENT AVE
19F052283 16:27:42 30 TRAFFIC STOP W JEFFERSON BLVD & I 69 302 SB ON
19F052288 16:30:23 103 UNWANTED 33XX W COLISEUM BLVD
19F052287 16:31:21 25 PD ACCIDENT GOSHEN AVE & ST MARYS AVE
19F052289 16:36:00 30 TRAFFIC STOP STELLHORN RD & MAPLECREST RD
19F052292 16:37:48 50 BURGLARY 24XX N CLINTON ST
19F052291 16:41:30 30 TRAFFIC STOP GETZ RD & COVINGTON RD
19F052293 16:43:53 43 DISTURBANCE 14XX GETZ RD
19F052295 16:47:55 41,36 TRIER RD & E COLISEUM BLVD
19F052296 16:48:14 25HS HIT SKIP ST JOSEPH BLVD & PARNELL AVE
19F052297 16:51:42 34 TRAFF HAZARD 37XX SOUTHWAYNE AVE
19F052299 16:55:38 27 RECKLESS DRI MAPLECREST RD & STELLHORN RD
19F052301 16:58:55 22I JUV INVEST 60XX S ANTHONY BLVD
19F052300 16:59:19 30 TRAFFIC STOP 62XX W JEFFERSON BLVD
19F052304 17:00:06 25HS HIT SKIP W WASHINGTON CENTER RD & GOSHEN RD
19F052303 17:02:07 103 UNWANTED 26XX S ANTHONY BLVD
19F052302 17:02:08 25 PD ACCIDENT 70XX BLUFFTON RD
19F052305 17:02:57 65T SUICIDE THR 28XX S CALHOUN ST
19F052309 17:05:46 37 PARKING VIOL W FOURTH ST & BARTHOLD ST
19F052306 17:07:17 41 MAN DOWN BROADWAY & SWINNEY AVE
19F052307 17:07:45 25 PD ACCIDENT 104XX COLDWATER RD
19F052308 17:10:32 24 MISSING PERS 64XX SPY GLASS RUN
19F052310 17:12:50 30 TRAFFIC STOP 77XX SOUTHTOWN XING
19F052311 17:16:41 40A AUDIBLE 11XX BROADWAY
19F052312 17:18:01 25 PD ACCIDENT W US 30 & KROEMER RD
19F052313 17:18:06 25 PD ACCIDENT LEY RD & LIMA RD
19F052314 17:18:59 44LM 8XX WOODVIEW BLVD
19F052316 17:22:06 51JO 53XX COLDWATER RD
19F052315 17:23:29 25 PD ACCIDENT E STATE BLVD & CRESCENT AVE
19F052317 17:25:37 51 THEFT 17XX COLUMBIA AVE
19F052318 17:30:17 22I JUV INVEST 4XX ARCADIA CT
19F052319 17:36:05 48 SUSPICIOUS FOX AVE & W CREIGHTON AVE
19F052320 17:37:55 22I JUV INVEST S HANNA ST & LAKESIDE CT
19F052321 17:42:47 30 TRAFFIC STOP E RUDISILL BLVD & S BARR ST
19F052322 17:50:26 33,34 GOSHEN RD & W COLISEUM BLVD
19F052325 17:52:08 96 BATTERY 75XX CONIFER PL
19F052323 17:52:24 30 TRAFFIC STOP 62XX W JEFFERSON BLVD
19F052324 17:54:21 42 INTOX PERSON 28XX S CALHOUN ST
19F052332 17:56:45 108 FOLLOWUP MCKINNIE AVE & S HANNA ST
19F052330 17:58:01 ATL 35XX AUTUMN LN
19F052327 17:58:37 40A AUDIBLE 7XX E WALLACE ST
19F052328 17:58:38 65T SUICIDE THR 51XX EASTWICK DR
19F052326 17:58:42 129 56XX HOPKINTON DR
19F052329 18:01:22 40A AUDIBLE 9XX E TILLMAN RD
19F052331 18:03:54 43 DISTURBANCE 25XX GAY ST
19F052335 18:08:26 911 HANG UP 48XX S ANTHONY BLVD
19F052333 18:08:58 33,34 S HANNA ST & LASSELLE ST
19F052334 18:10:21 25 PD ACCIDENT S LAFAYETTE ST & E WAYNE ST
19F052336 18:14:06 33,34 GOSHEN RD & W COLISEUM BLVD
19F052337 18:15:30 63 CONTACT 4XX W COLISEUM BLVD
19F052338 18:17:25 102,TX THREATS 22XX BROOKLYN AVE
19F052339 18:22:43 109 DUMPING 7XX W DEWALD ST
19F052340 18:26:09 25 PD ACCIDENT 30XX BURMA RD
19F052343 18:26:24 911 HANG UP 18XX BROWN ST
19F052349 18:26:45 46 DOMESTIC 5XX MEYER AVE
19F052342 18:26:59 40A AUDIBLE 41XX HESSEN CASSEL RD
19F052341 18:27:10 EMS 48XX FALL BROOK LN
19F052344 18:28:55 30 TRAFFIC STOP W STATE BLVD & ST MARYS AVE
19F052351 18:29:51 45 NEIGHBORHOOD 29XX KNODE CT
19F052345 18:30:46 103 UNWANTED 41XX W FERGUSON RD
19F052346 18:33:04 43 DISTURBANCE 9XX E WASHINGTON BLVD
19F052350 18:33:38 24 MISSING PERS 28XX WEISSER PARK AVE
19F052364 18:36:21 44LM 8XX WOODVIEW BLVD
19F052347 18:39:54 50IP BURG I/P 15XX GOSHEN AVE
19F052348 18:41:22 51JO 17XX APPLE GLEN BLVD
19F052352 18:41:58 102 THREATS 57XX HEATHERVIEW LN
19F052353 18:54:16 48,35 45XX SANDRIDGE DR
19F052354 18:55:55 48 SUSPICIOUS 19XX LIMA LN
19F052357 18:59:57 46 DOMESTIC 27XX W WASHINGTON CENTER RD
19F052356 19:00:07 48 SUSPICIOUS 13XX ORCHARD ST
19F052355 19:00:44 41 MAN DOWN DEVONSHIRE DR & E MAPLE GROVE AVe
19F052358 19:02:00 96JO 43XX S ANTHONY BLVD
19F052361 19:06:38 51JO 42XX COLDWATER RD
19F052360 19:06:42 43 DISTURBANCE 32XX N CLINTON ST
19F052359 19:07:28 46,96 55XX OLD DOVER BLVD
19F052367 19:14:49 1 MEET 49XX BLUFFTON RD
19F052362 19:15:29 65T SUICIDE THR XX COUNTRY FOREST DR
19F052365 19:15:55 51 THEFT 4XX FIFTH ST
19F052363 19:16:51 96JO 41XX S ANTHONY BLVD
19F052366 19:22:58 48 SUSPICIOUS 73XX MILL RUN RD
19F052368 19:26:15 40A AUDIBLE 99XX AIRPORT DR
19F052369 19:26:22 63 CONTACT 9XX TENNESSEE AVE
19F052370 19:30:00 129 28XX LINDEN DR
19F052371 19:30:20 30 TRAFFIC STOP VAN BUREN ST & MICHAELS AVE
19F052372 19:32:25 25 PD ACCIDENT LIMA RD & W LUDWIG RD
19F052373 19:34:24 46 DOMESTIC 13XX MARION ST
19F052375 19:37:22 96JO LE STEELE BLVD & ALTA VISTA CT
19F052374 19:40:08 65A SUICIDE ATT BROOKLYN AVE & HALE AVE
19F052392 19:47:49 102 THREATS 11XX FRANKLIN AVE
19F052376 19:47:56 102 THREATS 22XX BOWSER AVE
19F052378 19:53:57 63 CONTACT 64XX COVINGTON RD
19F052377 19:55:05 103 UNWANTED 75XX SOUTHTOWN XING
19F052379 19:57:04 43 DISTURBANCE 13XX SPRING ST
19F052385 19:59:13 44LM SHORT ST & SPRING ST
19F052380 20:02:09 1 MEET 41XX W WASHINGTON CENTER RD
19F052387 20:03:24 51 THEFT 13XX HUGH ST
19F052382 20:05:30 103 UNWANTED 11XX W STATE BLVD
19F052381 20:06:59 30 TRAFFIC STOP EAGLE ST & THOMPSON AVE
19F052383 20:11:41 25 PD ACCIDENT W COLISEUM BLVD & LIMA RD
19F052384 20:13:42 48,36 41XX PARNELL AVE
19F052386 20:18:52 103 UNWANTED 10XX N COLISEUM BLVD
19F052388 20:25:41 48 SUSPICIOUS 38XX BUESCHING DR
19F052390 20:26:26 40A AUDIBLE 3XX EDGEWOOD AVE
19F052389 20:26:27 99 NARCOTICS 21XX BROADWAY
19F052391 20:31:39 48 SUSPICIOUS BROADWAY & TAYLOR ST
19F052393 20:34:10 66 MENTALLY ILL 9XX E WASHINGTON BLVD
19F052394 20:36:20 30 TRAFFIC STOP TAYLOR ST & CATALPA ST
19F052395 20:36:37 30 TRAFFIC STOP BROADWAY & STOPHLET ST
19F052397 20:38:56 46 DOMESTIC GOSHEN RD & W WASHINGTON CENTER RD
19F052398 20:40:00 50 BURGLARY 2XX KILLEA ST
19F052396 20:40:01 30 TRAFFIC STOP 9XX N COLISEUM BLVD
19F052399 20:43:44 33,34 MAPLECREST RD & STELLHORN RD
19F052400 20:45:36 113 SHOTS FIRED 14XX HUGH ST
19F052401 20:48:54 65T SUICIDE THR 6XX E DUPONT RD
19F052402 20:50:17 1 MEET 55XX MEIJER DR
19F052403 20:53:15 103 UNWANTED 14XX E TILLMAN RD
19F052404 20:55:19 63 CONTACT 29XX DOCKSHIRE LN
19F052405 20:57:03 96 BATTERY 10XX LAKE AVE
19F052409 20:58:06 111D DOG 10XX N COLISEUM BLVD
19F052407 21:02:27 33,34 MAPLECREST RD & EVARD RD
19F052406 21:03:41 48,36 76XX S ANTHONY BLVD
19F052415 21:05:36 108 FOLLOWUP 4XX FAIRMOUNT PL
19F052408 21:07:00 41 MAN DOWN 8XX N COLISEUM BLVD
19F052429 21:14:28 16,97 14XX LAKE AVE
19F052410 21:14:50 33J LOCKED OUT 63XX W JEFFERSON BLVD
19F052411 21:16:18 43,62 21XX EDEN ST
19F052416 21:16:32 40A AUDIBLE 6XX E WASHINGTON BLVD
19F052412 21:16:59 40H HOLDUP ALRM 59XX ILLINOIS RD
19F052414 21:17:55 58 SHOOTING 22XX RANDALLIA DR
19F052413 21:18:16 30 TRAFFIC STOP S COLISEUM BLVD & NEW HAVEN AVE
19F052438 21:19:47 1 MEET XX E MAIN ST
19F052417 21:20:18 113 SHOTS FIRED E WASHINGTON BLVD & S LAFAYETTE ST
19F052418 21:22:25 46,96 29XX MANFORD ST
19F052420 21:23:57 33 DISABLED VEH 313XX I 69 NB
19F052419 21:24:26 911 HANG UP 57XX CHALLENGER PKWY
19F052430 21:30:32 22RN RUNAWAY 76XX COUNTRYVIEW DR
19F052424 21:33:51 46 DOMESTIC 2XX MABRY CV
19F052421 21:34:31 62 PARTY ARMED 30XX W COLISEUM BLVD
19F052434 21:35:14 61 RAPE 25XX NORDHOLME AVE
19F052432 21:36:35 51,35 96XX SKIPJACK CV
19F052422 21:39:01 40A AUDIBLE 12XX SYLVIA AVE
19F052423 21:40:35 30 TRAFFIC STOP E WASHINGTON BLVD & KITCH ST
19F052431 21:42:47 63 CONTACT 76XX PATRIOT XING
19F052425 21:45:49 25HS HIT SKIP 44XX COLDWATER RD
19F052426 21:52:33 25 PD ACCIDENT MCKINNIE AVE & S LAFAYETTE ST
19F052427 21:55:33 33 DISABLED VEH I 69 AND VANDOLAH RD
19F052428 21:57:47 30 TRAFFIC STOP S CALHOUN ST & CONGRESS AVE
19F052433 22:04:54 48 SUSPICIOUS 20XX BROADWAY
19F052436 22:05:04 48,35 36XX MCCORMICK AVE
19F052435 22:07:06 46 DOMESTIC 18XX GREENTREE CT
19F052437 22:10:26 44LM 14XX CASS ST
19F052439 22:12:34 43 DISTURBANCE 21XX EDEN ST
19F052441 22:20:09 55 FIGHT 16XX HIGH ST
19F052440 22:20:14 40A AUDIBLE 4XX INWOOD DR
19F052445 22:21:38 44LM 8XX BELLE AVE
19F052442 22:24:50 30 TRAFFIC STOP 70XX BLUFFTON RD
19F052443 22:25:04 129 17XX GREY BIRCH RD
19F052444 22:33:21 113 SHOTS FIRED 5XX E MASTERSON AVE
19F052446 22:34:25 30 TRAFFIC STOP E STATE BLVD & N COLISEUM BLVD
19F052448 22:35:37 48,35 103XX DAWSONS CREEK BLVD
19F052447 22:36:46 30 TRAFFIC STOP CRESCENT AVE & HOBSON RD
19F052449 22:41:20 43 DISTURBANCE 1XX E FERNHILL AVE
19F052450 22:41:48 43 DISTURBANCE 21XX EDEN ST
19F052451 22:46:38 46 DOMESTIC 18XX GREENTREE CT
19F052452 22:48:07 46 DOMESTIC 45XX CRAFTSBURY CIR
19F052453 22:49:34 30 TRAFFIC STOP SHOAFF PARK RIVER DR & ST JOE RD
19F052454 22:49:41 1 MEET 36XX E STATE BLVD
19F052455 22:52:32 63 CONTACT 31XX WELLS ST
19F052459 22:53:50 1 MEET 4XX BIRCHTREE LN
19F052456 22:57:12 30 TRAFFIC STOP TRIER RD & HOBSON RD
19F052457 23:02:10 25HS HIT SKIP 95XX HIDDEN VILLAGE PL
19F052464 23:09:01 44LP 26XX INDIANA AVE
19F052460 23:12:44 30 TRAFFIC STOP MAPLECREST RD & LAKE AVE
19F052461 23:12:52 30 TRAFFIC STOP W STATE BLVD & WELLS ST
19F052462 23:15:38 41,36 2XX E RUDISILL BLVD
19F052465 23:15:46 44LM 8XX BELLE AVE
19F052463 23:22:23 48,35 28XX NORTHGATE BLVD
19F052467 23:28:52 109 DUMPING W FOURTH ST & TYLER AVE
19F052469 23:32:48 42 INTOX PERSON 4XX W WASHINGTON BLVD
19F052466 23:33:41 48 SUSPICIOUS 17XX APPLE GLEN BLVD
19F052472 23:36:08 48,35 50XX ILLINOIS RD
19F052468 23:36:29 30 TRAFFIC STOP 25XX W JEFFERSON BLVD
19F052470 23:38:44 48,36 48XX WINCHESTER RD
19F052471 23:38:54 48,35 SPATZ AVE & MCKINNIE AVE
19F052473 23:40:28 48,36 37XX SENATE AVE
19F052474 23:41:01 46 DOMESTIC 4XX EDGEKNOLL LN
19F052476 23:43:35 22RN RUNAWAY 13XX FAYETTE DR
19F052475 23:55:32 30 TRAFFIC STOP W WAYNE ST & BROADWAY